Location: Çayiçi
(36.4667°N, 30.2333°E)
Time: 01:46:36
(UTC+00:00)

Cosmos 1812 Rocket - Pass Details

Date: 09 February 2023
Orbit: 603 x 631 km, 82.5° (Epoch: 01 April)

Event Time Altitude Azimuth Distance (km) Brightness Sun altitude
Rises 17:29:29 0° 347° (NNW) 2,923 7.2 -23.8°
Reaches altitude 10° 17:31:46 10° 343° (NNW) 2,008 6.3 -24.3°
Maximum altitude 17:36:05 53° 267° (W) 766 4.3 -25.1°
Drops below altitude 10° 17:40:21 10° 190° (S) 1,978 6.2 -26.0°
Sets 17:42:36 0° 186° (S) 2,874 7.0 -26.4°
